This demonstration page uses our WeatherBlox Daily Observations layout. Learn more.

Left ArrowRight Arrow

Hourly Observations for February 3, 2021

Temp ( °F °C ) Dew Point ( °F °C ) Humidity (%) Winds ( mph kmh ) Pressure ( in mb ) Visibility ( mi km ) Precip ( " mm )
12:15 am 00:15 Clear N/A N/A N/A N N/A N/A 10 16 N/A
12:35 am 00:35 Hazy N/A N/A N/A N N/A N/A 5 8 N/A
12:55 am 00:55 Clear N/A N/A N/A N N/A N/A 10 16 N/A
1:15 am 01:15 Clear N/A N/A N/A N N/A N/A 10 16 N/A
1:35 am 01:35 Clear N/A N/A N/A N N/A N/A 7 11 N/A
1:55 am 01:55 Clear N/A N/A N/A N N/A N/A 10 16 N/A
2:15 am 02:15 Clear N/A N/A N/A N N/A N/A 7 11 N/A
2:35 am 02:35 Hazy N/A N/A N/A N N/A N/A 5 8 N/A
2:55 am 02:55 Hazy N/A N/A N/A N N/A N/A 5 8 N/A
3:15 am 03:15 Clear N/A N/A N/A N N/A N/A 7 11 N/A
3:35 am 03:35 Clear N/A N/A N/A N N/A N/A 7 11 N/A
3:55 am 03:55 Clear N/A N/A N/A N N/A N/A 7 11 N/A
4:15 am 04:15 Hazy N/A N/A N/A N N/A N/A 5 8 N/A
4:35 am 04:35 Hazy N/A N/A N/A N N/A N/A 5 8 N/A
4:55 am 04:55 Clear N/A N/A N/A N N/A N/A 7 11 N/A
5:15 am 05:15 Clear N/A N/A N/A N N/A N/A 7 11 N/A
5:35 am 05:35 Clear N/A N/A N/A N N/A N/A 7 11 N/A
5:55 am 05:55 Clear N/A N/A N/A N N/A N/A 7 11 N/A
6:15 am 06:15 Clear N/A N/A N/A N N/A N/A 7 11 N/A
6:35 am 06:35 Clear N/A N/A N/A N N/A N/A 7 11 N/A
6:55 am 06:55 Clear N/A N/A N/A N N/A N/A 7 11 N/A
7:15 am 07:15 Hazy N/A N/A N/A N N/A N/A 5 8 N/A
7:35 am 07:35 Clear N/A N/A N/A N N/A N/A 7 11 N/A
7:55 am 07:55 Hazy N/A N/A N/A N N/A N/A 5 8 N/A
8:15 am 08:15 Sunny N/A N/A N/A N N/A N/A 7 11 N/A
8:35 am 08:35 Sunny N/A N/A N/A N N/A N/A 7 11 N/A
8:55 am 08:55 Sunny N/A N/A N/A N N/A N/A 7 11 N/A
9:15 am 09:15 Sunny N/A N/A N/A N N/A N/A 10 16 N/A
9:35 am 09:35 Sunny N/A N/A N/A SSW 6 9 N/A 10 16 N/A
9:55 am 09:55 Sunny N/A N/A N/A SSW 6 9 N/A 10 16 N/A
10:15 am 10:15 Sunny 34 1 33 0.5 97 97 S 5 7 29.86 1011 10 16 N/A
10:35 am 10:35 Sunny 35 1.8 34 1.3 97 97 S 5 7 29.84 1010 10 16 N/A
10:55 am 10:55 Sunny 37 2.8 34 0.9 87 87 S 12 19 29.82 1010 10 16 N/A
11:15 am 11:15 Sunny 39 3.7 33 0.5 80 80 SSW 8 13 29.79 1009 10 16 N/A
11:35 am 11:35 Sunny 39 4.1 33 0.5 78 78 SSW 12 19 29.79 1009 10 16 N/A
11:55 am 11:55 Sunny 40 4.5 32 0.2 74 74 SSW 12 19 29.79 1009 10 16 N/A
12:15 pm 12:15 Sunny 40 4.7 32 0.1 72 72 SSW 12 19 29.77 1008 10 16 N/A
12:35 pm 12:35 Sunny 42 5.5 32 0.2 69 69 SSW 9 15 29.75 1008 10 16 N/A
12:55 pm 12:55 Sunny 43 6 33 0.4 68 68 N N/A 29.72 1006 10 16 N/A
1:15 pm 13:15 Sunny 44 6.5 33 0.5 66 66 S 5 7 29.70 1006 10 16 N/A
1:35 pm 13:35 Sunny 43 6.2 33 0.7 68 68 S 3 6 29.69 1005 10 16 N/A
1:55 pm 13:55 Sunny 43 6 34 1 71 71 SSE 6 9 29.66 1004 10 16 N/A
2:15 pm 14:15 Sunny 43 6.2 35 1.5 72 72 SSE 6 9 29.65 1004 10 16 N/A
2:35 pm 14:35 Sunny 43 6.3 35 1.5 72 72 SSE 6 9 29.64 1004 10 16 N/A
2:55 pm 14:55 Sunny 44 6.5 34 1.3 70 70 S 10 17 29.62 1003 10 16 N/A
3:15 pm 15:15 Sunny 43 6.2 34 1 70 70 SSE 10 17 29.63 1003 10 16 N/A
3:35 pm 15:35 Sunny 43 6 34 1.1 71 71 SSE 7 11 29.63 1003 10 16 N/A
3:55 pm 15:55 Sunny 43 6.1 34 1.3 72 72 S 5 7 29.63 1003 10 16 N/A
4:15 pm 16:15 Sunny 42 5.6 34 1.3 74 74 SE 3 6 29.62 1003 10 16 N/A
4:35 pm 16:35 Sunny 42 5.3 35 1.5 77 77 N N/A 29.62 1003 10 16 N/A
4:55 pm 16:55 Sunny 42 5.5 35 1.5 76 76 N N/A 29.60 1002 10 16 N/A
5:15 pm 17:15 Sunny 42 5.5 35 1.5 76 76 N N/A 29.60 1002 10 16 N/A
5:35 pm 17:35 Sunny 42 5.5 34 1.3 75 75 N N/A 29.58 1002 10 16 N/A
5:55 pm 17:55 Sunny 40 4.4 34 0.9 78 78 N N/A 29.58 1002 10 16 N/A
6:15 pm 18:15 Clear 37 2.9 33 0.4 84 84 N N/A 29.61 1003 10 16 N/A
6:35 pm 18:35 Clear 36 2.3 32 0.1 86 86 N N/A 29.60 1002 10 16 N/A
6:55 pm 18:55 Clear 36 2.2 33 0.6 89 89 N 9 15 29.61 1003 10 16 N/A
7:15 pm 19:15 Clear 35 1.8 32 0.1 89 89 NNE 8 13 29.62 1003 10 16 N/A
7:35 pm 19:35 Clear 35 1.8 32 0.2 89 89 E 7 11 29.60 1002 10 16 N/A
7:55 pm 19:55 Clear 35 1.5 32 undefined 90 90 NE 8 13 29.62 1003 10 16 N/A
8:15 pm 20:15 Clear 35 1.8 32 0.2 89 89 ENE 7 11 29.61 1003 10 16 N/A
8:35 pm 20:35 Partly Cloudy 35 1.8 32 0.2 89 89 N 5 7 29.63 1003 10 16 N/A
8:55 pm 20:55 Mostly Cloudy 36 2 32 0.1 87 87 N N/A 29.62 1003 10 16 N/A
9:15 pm 21:15 Partly Cloudy 39 3.7 35 1.4 85 85 N 7 11 29.62 1003 10 16 N/A
9:35 pm 21:35 Partly Cloudy 38 3.1 34 0.9 86 86 NNW 8 13 29.63 1004 10 16 N/A
9:55 pm 21:55 Clear 38 3.3 34 0.9 84 84 NNW 13 20 29.64 1004 10 16 N/A
10:15 pm 22:15 Clear 38 3.3 34 1 85 85 N 15 24 29.66 1004 10 16 N/A
10:35 pm 22:35 Partly Cloudy 39 3.7 34 1 83 83 N 23 37 29.65 1004 10 16 N/A
10:55 pm 22:55 Mostly Cloudy 38 3.5 33 0.7 82 82 NNE 17 28 29.65 1004 10 16 N/A
11:15 pm 23:15 Cloudy 38 3.5 33 0.7 82 82 N 18 30 29.66 1004 10 16 N/A
11:35 pm 23:35 Cloudy 37 2.8 32 undefined 82 82 N 18 30 29.70 1006 10 16 N/A
11:55 pm 23:55 Cloudy 37 2.6 31 -0.5 80 80 NNW 24 39 29.75 1007 10 16 N/A

Powered by AerisWeather